Ontario, CA

6:08 AM PDT on June 25, 2017 (GMT -0700)
Ontario International

Weather History for KONT - July, 2013

Change the Weather History Date:

Thursday, July 4, 2013

  Actual Average Record
Temperature  
Mean Temperature 81 °F 76 °F  
Max Temperature 96 °F 91 °F 101 °F (2008)
Min Temperature 66 °F 62 °F 57 °F (2010)
Degree Days  
Heating Degree Days 0 0  
Month to date heating degree days 0 0  
Since 1 June heating degree days 0 5  
Since 1 July heating degree days 0 0  
Cooling Degree Days 16 11  
Month to date cooling degree days 72 44  
Year to date cooling degree days 669 433  
Since 1 June cooling degree days 378 267  
Growing Degree Days 30 (Base 50)    
Moisture  
Dew Point 56 °F    
Average Humidity 52    
Maximum Humidity 81    
Minimum Humidity 22    
Precipitation  
Precipitation 0.00 in 0.00 in 0.00 in (2017)
Month to date precipitation T 0.01  
Year to date precipitation 2.79 10.39  
Since 1 July precipitation T  
Snow  
Snow 0.00 in - - ()
Month to date snowfall 0.0  
Year to date snowfall 0.0  
Snow Depth 0.00 in    
Sea Level Pressure  
Sea Level Pressure 29.76 in    
Wind  
Wind Speed 5 mph (WSW)    
Max Wind Speed 15 mph    
Max Gust Speed 21 mph    
Visibility 9 miles    
Events      
T = Trace of Precipitation, MM = Missing Value Source: NWS Daily Summary

Daily Weather History Graph

Daily Weather History Graph

Search for Another Location

Airport or City:

Trip Planner

Search our weather history database for the weather conditions in past years. The results will help you decide how hot, cold, wet, or windy it might be!

Date:

Astronomy

Jul. 04, 2013 Rise Set
Actual Time 5:44 AM PDT 8:05 PM PDT
Civil Twilight 5:15 AM PDT 8:34 PM PDT
Nautical Twilight 4:39 AM PDT 9:10 PM PDT
Astronomical Twilight 4:00 AM PDT 9:48 PM PDT
Moon 3:00 AM PDT (7/4) 5:16 PM PDT (7/4)
Length of Visible Light 15h 19m
Length of Day
14h 21m
Waning Crescent, 11% of the Moon is Illuminated
Jul 4
Waning Crescent
Jul 8
New
Jul 15
First Quarter
Jul 22
Full
Jul 29
Last Quarter

Hourly Weather History & Observations

Time (PDT) Temp. Heat Index Dew Point Humidity Pressure Visibility Wind Dir Wind Speed Gust Speed Precip Events Conditions
12:53 AM 73.0 °F - 59.0 °F 61% 29.78 in 10.0 mi SW 4.6 mph - N/A   Partly Cloudy
1:53 AM 72.0 °F - 60.1 °F 66% 29.78 in 10.0 mi WSW 4.6 mph - N/A   Clear
2:53 AM 70.0 °F - 59.0 °F 68% 29.76 in 10.0 mi WSW 4.6 mph - N/A   Clear
3:53 AM 68.0 °F - 60.1 °F 76% 29.76 in 10.0 mi Calm Calm - N/A   Clear
4:53 AM 68.0 °F - 60.1 °F 76% 29.75 in 10.0 mi WSW 3.5 mph - N/A   Clear
5:53 AM 66.9 °F - 60.1 °F 79% 29.76 in 5.0 mi Calm Calm - N/A   Haze
6:53 AM 68.0 °F - 60.1 °F 76% 29.77 in 6.0 mi Calm Calm - N/A   Haze
7:53 AM 70.0 °F - 60.1 °F 71% 29.78 in 6.0 mi Calm Calm - N/A   Haze
8:53 AM 73.0 °F - 60.1 °F 64% 29.79 in 7.0 mi Calm Calm - N/A   Partly Cloudy
9:53 AM 78.1 °F - 59.0 °F 52% 29.78 in 8.0 mi Variable 3.5 mph - N/A   Partly Cloudy
10:53 AM 84.0 °F 83.3 °F 57.0 °F 40% 29.77 in 10.0 mi WSW 6.9 mph - N/A   Scattered Clouds
11:53 AM 89.1 °F 86.9 °F 54.0 °F 30% 29.77 in 10.0 mi WSW 4.6 mph - N/A   Scattered Clouds
12:53 PM 91.0 °F - 48.9 °F 23% 29.75 in 10.0 mi WSW 8.1 mph - N/A   Scattered Clouds
1:53 PM 93.9 °F - 52.0 °F 24% 29.73 in 10.0 mi West 8.1 mph - N/A   Scattered Clouds
2:53 PM 95.0 °F - 50.0 °F 22% 29.71 in 10.0 mi WSW 9.2 mph - N/A   Scattered Clouds
3:53 PM 95.0 °F 92.5 °F 53.1 °F 24% 29.69 in 10.0 mi WSW 12.7 mph 19.6 mph N/A   Scattered Clouds
4:53 PM 91.9 °F - 48.0 °F 22% 29.69 in 10.0 mi West 12.7 mph - N/A   Scattered Clouds
5:53 PM 89.1 °F - 51.1 °F 27% 29.70 in 10.0 mi WSW 12.7 mph - N/A   Scattered Clouds
6:53 PM 84.0 °F - 50.0 °F 31% 29.72 in 10.0 mi WSW 11.5 mph - N/A   Scattered Clouds
7:53 PM 79.0 °F - 54.0 °F 42% 29.74 in 10.0 mi WSW 11.5 mph - N/A   Partly Cloudy
8:53 PM 73.9 °F - 57.0 °F 55% 29.77 in 10.0 mi West 10.4 mph - N/A   Partly Cloudy
9:53 PM 71.1 °F - 59.0 °F 66% 29.79 in 10.0 mi WSW 6.9 mph - N/A   Partly Cloudy
10:53 PM 69.1 °F - 59.0 °F 70% 29.80 in 8.0 mi SW 5.8 mph - N/A   Clear
11:53 PM 66.9 °F - 59.0 °F 76% 29.79 in 7.0 mi SW 5.8 mph - N/A   Clear